Overview Statistics Trail Chart Weather Telemetry Raw packets
 

This is the latest recevied weather packets stored in our database for station/object AB4KY. If no packets are shown the sender has not sent any weather packets the latest 10 day(s).

<< 110 111 112 113 114 >>
Time Temp. Humidity Pressure Rain* Wind** Luminosity Snow
1787782987 27.78° C 68% 1011.7 hPa 0 mm - 37 W/m² -
1787782686 27.78° C 67% 1011.7 hPa 0 mm - 37 W/m² -
1787782382 27.78° C 67% 1011.8 hPa 0 mm - 39 W/m² -
1787782077 27.78° C 65% 1011.9 hPa 0 mm - 39 W/m² -
1787781772 27.78° C 64% 1011.8 hPa 0 mm - 40 W/m² -
1787781469 27.78° C 64% 1012 hPa 0 mm - 42 W/m² -
1787781169 27.78° C 62% 1012 hPa 0 mm - 48 W/m² -
1787780868 27.78° C 63% 1011.9 hPa 0 mm - 62 W/m² -
1787780562 27.78° C 65% 1012.2 hPa 0 mm - 45 W/m² -
1787780258 27.78° C 65% 1012.1 hPa 0 mm - 45 W/m² -
1787779953 27.78° C 62% 1012.1 hPa 0 mm - 117 W/m² -
1787779648 27.78° C 62% 1012.1 hPa 0 mm - 48 W/m² -
1787779347 27.78° C 61% 1012.3 hPa 0 mm - 49 W/m² -
1787779042 27.78° C 63% 1012.4 hPa 0 mm - 62 W/m² -
1787778738 27.78° C 63% 1012.3 hPa 0 mm - 56 W/m² -
1787778434 28.33° C 62% 1012.7 hPa 0 mm - 54 W/m² -
1787778129 28.33° C 62% 1012.7 hPa 0 mm - 55 W/m² -
1787777828 28.33° C 61% 1012.5 hPa 0 mm - 146 W/m² -
1787777525 28.33° C 62% 1012.8 hPa 0 mm - 67 W/m² -
1787777225 28.33° C 62% 1012.7 hPa 0 mm - 65 W/m² -
1787776924 28.33° C 61% 1012.9 hPa 0 mm - 72 W/m² -
1787776623 28.33° C 60% 1013 hPa 0 mm - 75 W/m² -
1787776323 28.89° C 59% 1013 hPa 0 mm - 106 W/m² -
1787776020 28.89° C 60% 1013 hPa 0 mm - 75 W/m² -
1787775716 28.89° C 61% 1012.9 hPa 0 mm - 76 W/m² -

* Rain latest hour (hover to see other rain measurements)
** Current wind speed in m/s (hover to see current wind gust speed)